Tiempo cada hora Bilbao

Hoy, 4 Diciembre, Viernes

Tiempo Temperatura Precipitaciones Viento Presión Humedad
00:00 +7°C° 2.7 mm 6 mps 736 mmHg 93%
01:00 +5°C° 1.2 mm 6 mps 736 mmHg 91%
02:00 +5°C° 1.2 mm 6 mps 736 mmHg 89%
03:00 +4°C° 1.2 mm 6 mps 735 mmHg 86%
04:00 +4°C° 0.2 mm 6 mps 735 mmHg 86%
05:00 +3°C° 0.2 mm 6 mps 735 mmHg 86%
06:00 +3°C° 0.2 mm 5 mps 735 mmHg 85%
07:00 +3°C° 0.3 mm 5 mps 735 mmHg 83%
08:00 +3°C° 0.3 mm 5 mps 735 mmHg 81%
09:00 +5°C° 0.3 mm 5 mps 735 mmHg 79%
10:00 +5°C° 0.2 mm 5 mps 735 mmHg 76%
11:00 +5°C° 0.2 mm 6 mps 735 mmHg 72%
12:00 +5°C° 0.2 mm 6 mps 734 mmHg 69%
13:00 +5°C° 0.4 mm 6 mps 734 mmHg 74%
14:00 +5°C° 0.4 mm 6 mps 734 mmHg 78%
15:00 +5°C° 0.4 mm 5 mps 734 mmHg 83%
16:00 +5°C° 0.5 mm 5 mps 735 mmHg 84%
17:00 +4°C° 0.5 mm 6 mps 735 mmHg 85%
18:00 +3°C° 0.5 mm 6 mps 735 mmHg 86%
19:00 +3°C° 0.3 mm 6 mps 736 mmHg 85%
20:00 +3°C° 0.3 mm 6 mps 736 mmHg 85%
21:00 +3°C° 0.3 mm 6 mps 736 mmHg 85%
22:00 +2°C° 0.3 mm 5 mps 736 mmHg 85%
23:00 +2°C° 0.3 mm 5 mps 737 mmHg 85%

Mañana, 5 Diciembre, Sábado

Tiempo Temperatura Precipitaciones Viento Presión Humedad
00:00 +2°C° 0.3 mm 5 mps 737 mmHg 85%
01:00 +2°C° 0.1 mm 5 mps 737 mmHg 84%
02:00 +1°C° 0.1 mm 5 mps 737 mmHg 84%
03:00 +1°C° 0.1 mm 5 mps 737 mmHg 83%
04:00 +1°C° 0.1 mm 5 mps 737 mmHg 82%
05:00 +1°C° 0.1 mm 5 mps 737 mmHg 81%
06:00 +1°C° 0.1 mm 5 mps 737 mmHg 79%
07:00 +1°C° 0.7 mm 5 mps 737 mmHg 82%
08:00 +2°C° 0.7 mm 5 mps 737 mmHg 85%
09:00 +2°C° 0.7 mm 6 mps 737 mmHg 88%
10:00 +2°C° 2.7 mm 6 mps 737 mmHg 91%
11:00 +2°C° 2.7 mm 6 mps 737 mmHg 93%
12:00 +2°C° 2.7 mm 6 mps 738 mmHg 95%
13:00 +3°C° 0.8 mm 6 mps 738 mmHg 94%
14:00 +4°C° 0.8 mm 6 mps 738 mmHg 94%
15:00 +5°C° 0.8 mm 6 mps 739 mmHg 94%
16:00 +5°C° 0.6 mm 6 mps 739 mmHg 93%
17:00 +5°C° 0.6 mm 6 mps 739 mmHg 92%
18:00 +5°C° 0.6 mm 7 mps 740 mmHg 91%
19:00 +4°C° 0.2 mm 7 mps 740 mmHg 89%
20:00 +4°C° 0.2 mm 7 mps 740 mmHg 87%
21:00 +4°C° 0.2 mm 7 mps 740 mmHg 85%
22:00 +3°C° 1.2 mm 7 mps 741 mmHg 87%
23:00 +3°C° 1.2 mm 6 mps 741 mmHg 89%

Pasado mañana, 6 Diciembre, Domingo

Tiempo Temperatura Precipitaciones Viento Presión Humedad
00:00 +3°C° 1.2 mm 5 mps 741 mmHg 91%
01:00 +3°C° 1.1 mm 5 mps 742 mmHg 92%
02:00 +3°C° 1.1 mm 5 mps 742 mmHg 94%
03:00 +2°C° 1.1 mm 5 mps 742 mmHg 95%
04:00 +2°C° 0.8 mm 5 mps 743 mmHg 95%
05:00 +2°C° 0.8 mm 5 mps 743 mmHg 95%
06:00 +2°C° 0.8 mm 5 mps 743 mmHg 95%
07:00 +4°C° 0.6 mm 4 mps 743 mmHg 94%
08:00 +4°C° 0.6 mm 4 mps 744 mmHg 93%
09:00 +4°C° 0.6 mm 4 mps 744 mmHg 92%
10:00 +5°C° 0.7 mm 4 mps 744 mmHg 91%
11:00 +6°C° 0.7 mm 5 mps 744 mmHg 90%
12:00 +6°C° 0.7 mm 5 mps 745 mmHg 89%
13:00 +6°C° 1 mm 5 mps 745 mmHg 89%
14:00 +6°C° 1 mm 5 mps 745 mmHg 90%
15:00 +6°C° 1 mm 5 mps 745 mmHg 90%
16:00 +6°C° 0.5 mm 5 mps 745 mmHg 91%
17:00 +5°C° 0.5 mm 4 mps 746 mmHg 92%
18:00 +5°C° 0.5 mm 4 mps 746 mmHg 93%
19:00 +5°C° 0.3 mm 4 mps 747 mmHg 94%
20:00 +5°C° 0.3 mm 3 mps 748 mmHg 94%
21:00 +4°C° 0.3 mm 3 mps 748 mmHg 94%
22:00 +4°C° 0.8 mm 3 mps 748 mmHg 95%
23:00 +4°C° 0.8 mm 3 mps 748 mmHg 95%

7 Diciembre, Lunes

Tiempo Temperatura Precipitaciones Viento Presión Humedad
00:00 +4°C° 0.8 mm 3 mps 749 mmHg 96%
01:00 +4°C° 1.3 mm 3 mps 749 mmHg 96%
02:00 +4°C° 1.3 mm 3 mps 749 mmHg 95%
03:00 +4°C° 1.3 mm 3 mps 749 mmHg 95%
04:00 +3°C° 0.5 mm 3 mps 749 mmHg 93%
05:00 +3°C° 0.5 mm 3 mps 748 mmHg 92%
06:00 +2°C° 0.5 mm 3 mps 748 mmHg 90%
07:00 +1°C° 0.2 mm 4 mps 748 mmHg 90%
08:00 +3°C° 0.2 mm 4 mps 748 mmHg 90%
09:00 +3°C° 0.2 mm 4 mps 747 mmHg 90%
10:00 +4°C° 0.5 mm 4 mps 747 mmHg 91%
11:00 +5°C° 0.5 mm 4 mps 746 mmHg 91%
12:00 +5°C° 0.5 mm 4 mps 745 mmHg 92%
13:00 +6°C° 1.3 mm 5 mps 745 mmHg 93%
14:00 +5°C° 1.3 mm 6 mps 744 mmHg 94%
15:00 +6°C° 1.3 mm 7 mps 744 mmHg 95%
16:00 +7°C° 0.8 mm 6 mps 744 mmHg 95%
17:00 +7°C° 0.8 mm 6 mps 745 mmHg 95%
18:00 +7°C° 0.8 mm 6 mps 745 mmHg 95%
19:00 +7°C° 0.5 mm 5 mps 745 mmHg 95%
20:00 +7°C° 0.5 mm 5 mps 745 mmHg 95%
21:00 +7°C° 0.5 mm 5 mps 745 mmHg 95%
22:00 +7°C° 1.3 mm 5 mps 745 mmHg 94%
23:00 +6°C° 1.3 mm 5 mps 745 mmHg 94%

8 Diciembre, Martes

Tiempo Temperatura Precipitaciones Viento Presión Humedad
00:00 +6°C° 1.3 mm 5 mps 745 mmHg 93%
01:00 +6°C° 2.2 mm 5 mps 744 mmHg 94%
02:00 +6°C° 2.2 mm 5 mps 744 mmHg 95%
03:00 +5°C° 2.2 mm 5 mps 744 mmHg 96%
04:00 +4°C° 0.5 mm 6 mps 744 mmHg 94%
05:00 +5°C° 0.5 mm 6 mps 745 mmHg 93%
06:00 +5°C° 0.5 mm 6 mps 745 mmHg 91%
07:00 +4°C° 1 mm 6 mps 745 mmHg 91%
08:00 +4°C° 1 mm 6 mps 745 mmHg 91%
09:00 +4°C° 1 mm 6 mps 745 mmHg 91%
10:00 +4°C° 1.4 mm 6 mps 745 mmHg 92%
11:00 +4°C° 1.4 mm 6 mps 745 mmHg 93%
12:00 +4°C° 1.4 mm 6 mps 746 mmHg 93%
13:00 +5°C° 0.9 mm 5 mps 746 mmHg 93%
14:00 +6°C° 0.9 mm 5 mps 746 mmHg 93%
15:00 +6°C° 0.9 mm 5 mps 746 mmHg 94%
16:00 +6°C° 0.6 mm 5 mps 747 mmHg 93%
17:00 +6°C° 0.6 mm 5 mps 747 mmHg 93%
18:00 +6°C° 0.6 mm 5 mps 747 mmHg 93%
19:00 +5°C° 0.4 mm 5 mps 748 mmHg 93%
20:00 +4°C° 0.4 mm 6 mps 748 mmHg 93%
21:00 +4°C° 0.4 mm 6 mps 748 mmHg 93%
22:00 +4°C° 1.1 mm 6 mps 748 mmHg 93%
23:00 +4°C° 1.1 mm 7 mps 748 mmHg 93%

9 Diciembre, Miércoles

Tiempo Temperatura Precipitaciones Viento Presión Humedad
00:00 +4°C° 1.1 mm 7 mps 748 mmHg 93%
01:00 +5°C° 0.9 mm 6 mps 749 mmHg 93%
02:00 +5°C° 0.9 mm 6 mps 749 mmHg 93%
03:00 +5°C° 0.9 mm 6 mps 749 mmHg 94%
04:00 +5°C° 0.7 mm 6 mps 750 mmHg 93%
05:00 +7°C° 0.7 mm 6 mps 750 mmHg 92%
06:00 +7°C° 0.7 mm 6 mps 751 mmHg 91%
07:00 +7°C° 0.6 mm 5 mps 751 mmHg 92%
08:00 +7°C° 0.6 mm 5 mps 752 mmHg 93%
09:00 +7°C° 0.6 mm 4 mps 752 mmHg 94%
10:00 +7°C° 0.6 mm 5 mps 752 mmHg 92%
11:00 +8°C° 0.6 mm 5 mps 753 mmHg 89%
12:00 +8°C° 0.6 mm 5 mps 753 mmHg 87%
13:00 +8°C° 0.5 mm 5 mps 753 mmHg 88%
14:00 +8°C° 0.5 mm 5 mps 753 mmHg 89%
15:00 +8°C° 0.5 mm 5 mps 753 mmHg 89%
16:00 +8°C° 0.9 mm 4 mps 753 mmHg 90%
17:00 +7°C° 0.9 mm 4 mps 753 mmHg 92%
18:00 +6°C° 0.9 mm 4 mps 753 mmHg 93%
19:00 +6°C° 0.3 mm 4 mps 753 mmHg 93%
20:00 +5°C° 0.3 mm 3 mps 753 mmHg 92%
21:00 +5°C° 0.3 mm 3 mps 754 mmHg 92%
22:00 +5°C° 0 mm 3 mps 753 mmHg 91%
23:00 +5°C° 0 mm 3 mps 753 mmHg 90%
Mostrar más

Necesitamos Su Consentimiento

Meteoprog y nuestros Proveedores de Servicios pueden almacenar y acceder a sus datos personales como cookies, identificadores de dispositivo u otras tecnologías similares de su dispositivo y procesar dichos datos para personalizar contenido y anuncios, además de ofrecer funciones de redes sociales y analizar el tráfico.

  • Almacenar y/o acceder a información en su dispositivo

    Se puede almacenar o acceder a cookies, identificadores de dispositivo u otra información de su dispositivo para los fines anteriormente indicados.

  • Anuncios y contenido personalizados, medición de anuncios y contenido, percepciones del público, y desarrollo de productos

    Los anuncios y el contenido pueden personalizarse en base a su perfil. Se pueden añadir más datos para personalizar mejor los anuncios y contenidos. Se puede medir el rendimiento de los anuncios y contenidos. Se puede obtener la percepción sobre el público que ha visto los anuncios y contenidos. Dichos datos pueden usarse para desarrollar o mejorar la experiencia del usuario, sistemas y software.

Al hacer clic en ‘Estoy De Acuerdo’ usted permitirá el uso de las cookies, identificadores de dispositivo, balizas web u otras tecnologías similares indicadas. Su configuración puede cambiarse desde el navegador de su dispositivo.

Para ciertos fines, los intereses legítimos pueden ser considerados por encima del consentimiento. Puede leer más sobre ello en nuestra Política de Privacidad y Cookies.